Regional Weather Roundup
Issued by NWS Cleveland, OH

Home | Current Version | Previous Version | Graphics & Text | Print | Product List | Glossary On
Versions: 1 2 3 4 5 6 7 8 9 10 11 12 13 14 15 16 17 18 19 20 21 22 23 24 25 26 27 28 29 30 31 32 33 34 35 36 37 38 39 40 41 42 43 44 45 46 47 48 49 50
000
ASUS41 KCLE 311800
RWRCLE
OHIO REGIONAL WEATHER ROUNDUP
NATIONAL WEATHER SERVICE WILMINGTON, OH
200 PM EDT FRI OCT 31 2014

NOTE: "FAIR" INDICATES FEW OR NO CLOUDS BELOW 12,000 FEET WITH NO
SIGNIFICANT WEATHER AND/OR OBSTRUCTIONS TO VISIBILITY.

OHZ001>008-015>018-024>027-034-035-043-044-311900-
   NORTHWEST OHIO

CITY           SKY/WX    TMP DP  RH WIND       PRES   REMARKS
DEFIANCE       LGT RAIN  43  36  76 NW13      29.91F
FINDLAY        LGT RAIN  43  39  86 NW13      29.87F
TOLEDO EXPRESS LGT RAIN  42  39  89 NW9       29.88F
TOLEDO METCALF LGT RAIN  44  39  82 NW8       29.88F
LIMA           LGT RAIN  41  37  86 NW13      29.88F
$$

OHZ009>014-019>023-028>033-038-089-311900-
   NORTHEAST OHIO

CITY           SKY/WX    TMP DP  RH WIND       PRES   REMARKS
CLE-HOPKINS    LGT RAIN  47  36  65 SW7       29.89F
CLE-LAKEFRONT  CLOUDY   N/A N/A N/A SW3       29.86F
CUY CO. ARPT   CLOUDY    50  37  62 SW8       29.87F
LORAIN-ELYRIA  LGT RAIN  46  38  73 W8        29.87F
ASHTABULA      CLOUDY    48  36  63 SW7       29.88F
AKRON-CANTON   CLOUDY    47  37  68 S7        29.86F
WOOSTER        NOT AVBL
MANSFIELD      CLOUDY    44  37  76 W6        29.86F
YOUNGSTOWN     LGT RAIN  46  38  73 S6        29.87F
$$

OHZ042-051>053-060>062-070>072-077>081-311900-
  SOUTHWEST OHIO

CITY           SKY/WX    TMP DP  RH WIND       PRES   REMARKS
CINC-COVINGTON LGT RAIN  42  38  85 NW18G25   29.92F
CINC-LUNKEN    LGT RAIN  44  40  85 W7        29.93F
HAMILTON       LGT RAIN  42  39  89 NW12      29.94F
DAYTON         NOT AVBL
WRIGHT-PAT AFB NOT AVBL
DAYTON GENERAL LGT RAIN  41  38  89 NW15      29.90F
WILMINGTON     RAIN      43  38  82 W13       29.88F
$$

OHZ036-037-039>041-045>050-054>059-063>069-073>076-082>088-311900-
  CENTRAL AND SOUTHEAST OHIO

CITY           SKY/WX    TMP DP  RH WIND       PRES   REMARKS
COLUMBUS       LGT RAIN  46  40  79 S7        29.87F
OSU AIRPORT    CLOUDY    45  38  76 W9        29.87F
BOLTON FIELD   DRIZZLE   45  39  81 SW9       29.87F
RICKENBACK AFB NOT AVBL
NEWARK         CLOUDY    47  38  71 S8        29.87F
MARION         LGT RAIN  44  38  79 W6        29.87F
LANCASTER      CLOUDY    47  40  76 S7        29.88F
ZANESVILLE     CLOUDY    46  38  73 S7        29.88F
NEW PHILLY     CLOUDY    47  39  74 VRB6      29.88F
$$



USA.gov is the U.S. government's official web portal to all federal, state and local government web resources and services.